{"data":{"norad_id":52603,"epoch":"2026-05-25T03:45:38.685600Z","epoch_age_seconds":71801,"freshness":"FRESH","line1":"1 52603U 22052F   26145.15669775  .00008733  00000+0  56665-3 0  9992","line2":"2 52603  53.2165 295.8554 0001541  88.5491 271.5677 15.08805281223206","mean_motion":15.08805281,"eccentricity":0.0001541,"inclination_deg":53.2165,"raan_deg":295.8554,"arg_perigee_deg":88.5491,"mean_anomaly_deg":271.5677,"bstar":0.00056665,"rev_number":22320,"period_min":95.439750783852,"perigee_km":538.78345137085,"apogee_km":540.91557481419,"semimajor_km":6917.9865130925,"source":"CELESTRAK","updated_at":"2026-05-25T13:38:17.197493Z"}}